Allet's Favorite Verses

Folder Contents

Author's Full Portfolio

.

I have been writing and publishing poetry since 1969. I have created this folder of my poems I like best. They sing to me of me best. I hope you enjoy them as much as I did in rediscovering, rewriting, and re-reading them.

.

Stella L. Crews

2019

 

Title Comments Views Updated Postedsort icon
1 Epic Proportions 4 364 2019/02/16 7 years ago
2 The Exam 4 293 2019/06/30 7 years ago
3 Strange Mirror 176 2019/02/18 7 years ago
4 Love As Infinity 10 668 2019/02/18 7 years ago
5 No Longer Who I Was 2 171 2019/02/18 7 years ago
6 I Love Graveyards 222 2019/06/30 7 years ago
7 Diatom of Dew 4 261 2019/05/27 6 years ago
8 God of Our Fathers and Mothers 2 169 2019/02/16 6 years ago
9 I Should Have Ended It 6 185 2019/02/16 6 years ago
10 Knight 2 183 2019/08/04 6 years ago
11 Time Framed 2 184 2019/02/18 6 years ago
12 The Hat 2 218 2019/02/18 6 years ago
13 Seed For Thought 187 2019/02/19 6 years ago
14 Men Are Marvelous 6 327 2019/02/19 6 years ago
15 Bulbs In Snow 4 162 2019/02/19 6 years ago
16 Hook and Line 4 171 2019/02/19 6 years ago
17 Futile As A Poem 4 181 2019/02/19 6 years ago
18 The Grand Finale 4 153 2019/02/20 6 years ago
19 Little Kids 194 2019/02/16 6 years ago
20 Weeping 125 2019/02/20 6 years ago
21 Poetwords 4 259 2019/03/03 6 years ago
22 Untitle-able 191 2019/03/09 6 years ago
23 Simple Thing 2 212 2019/08/21 6 years ago
24 Untainted 6 387 2019/03/09 6 years ago
25 Dry Docked Muse 2 145 2019/03/10 6 years ago
26 Star Ode 2 167 2019/03/10 6 years ago
27 The Cow's Song 3 191 2019/03/11 6 years ago
28 Redundancy 2 198 2019/03/11 6 years ago
29 Gray Zone 1 174 2019/08/04 6 years ago
30 Write Your Own Epitaph 6 328 2019/03/13 6 years ago
31 Drinking Habitually 4 208 2019/03/23 5 years ago
32 The Woman I Have To Be 12 327 2019/03/25 5 years ago
33 The Gems of Morning 2 110 2019/03/27 5 years ago
34 To Write Or Not To Be 148 2019/03/28 5 years ago
35 The Flower 182 2019/03/29 5 years ago
36 Death Rocks 170 2019/03/29 5 years ago
37 The Desert 178 2019/03/30 5 years ago
38 massitivity 2 194 2019/03/30 4 years ago
39 through the fog of his eyes 4 232 2019/03/30 4 years ago
40 Chirping Birds 2 145 2019/03/31 4 years ago
41 Again, After Delaney 185 2019/07/16 4 years ago
42 World Anthem 8 225 2019/04/05 4 years ago
43 Out of The Mist 2 170 2019/04/05 4 years ago
44 Give Me Some Time 1 253 2019/07/24 4 years ago
45 "John Wick" 2 1,437 2019/08/09 4 years ago
46 Take A Letter To My Muse 4 220 2019/04/25 4 years ago
47 I Once Dreamed of Spring 2 620 2019/11/19 4 years ago
48 Short Of Words 151 2019/04/07 4 years ago
49 Tame 4 193 2019/04/07 4 years ago
50 Sans Color 2 188 2019/04/08 4 years ago
51 Antiseptic 4 158 2019/04/08 4 years ago
52 Anemia 125 2019/04/08 4 years ago
53 Wise Among Us 157 2019/04/10 4 years ago
54 Like A Love Poem 8 171 2019/04/14 4 years ago
55 Love 97 2019/04/14 4 years ago
56 Arrowheads 7 116 2019/04/15 4 years ago
57 Petrified Cacti 2 122 2019/04/16 4 years ago
58 Hoping He 90 2019/04/16 4 years ago
59 What Beckons 2 117 2019/04/16 4 years ago
60 Birds As Flight 112 2019/04/16 4 years ago
61 Exorcising 123 2019/04/16 4 years ago
62 Lions And Lambs 93 2019/04/17 4 years ago
63 Writing Is Work 4 203 2019/04/18 4 years ago
64 Two Poets Talking 2 247 2019/04/18 4 years ago
65 Writer 4 154 2019/04/18 4 years ago
66 Love Just There 2 126 2019/04/18 4 years ago
67 Exposure To The World 2 177 2019/04/19 4 years ago
68 Poet Circle 10 268 2019/04/21 4 years ago
69 Rain-God 2 101 2019/04/23 4 years ago
70 New Dirt 2 115 2019/04/25 4 years ago
71 Also Works of Art 112 2019/04/25 4 years ago
72 Poetically Spoken 105 2019/04/25 4 years ago
73 What I Said 127 2019/04/26 4 years ago
74 Raindrop Dodging 4 155 2019/04/26 4 years ago
75 Creation 108 2019/04/26 4 years ago
76 One Candle In The Room 129 2019/04/26 4 years ago
77 Mask 125 2019/04/28 4 years ago
78 Alone Is Okay 8 254 2019/04/28 4 years ago
79 Life As Definition 162 2019/04/28 4 years ago
80 Leaper 152 2019/04/29 4 years ago
81 Who Is This? 6 136 2019/04/29 4 years ago
82 Nadirs 143 2019/04/29 4 years ago
83 Love On The Lam 144 2019/05/03 4 years ago
84 God & I 112 2019/05/03 4 years ago
85 Subset of Nothing 2 139 2019/05/03 4 years ago
86 Fun With Dick & Jane 4 165 2019/05/04 4 years ago
87 Food Message 2 112 2019/05/06 4 years ago
88 Card Shark 2 163 2019/05/06 4 years ago
89 The Glory of Now 6 114 2019/05/07 4 years ago
90 Let The Past Be The Past 2 141 2019/05/07 4 years ago
91 Freeze Fall 2 101 2019/05/07 4 years ago
92 Fere Jacques 161 2019/05/10 4 years ago
93 Love Face Down 109 2019/05/11 4 years ago
94 Mistakes 93 2019/05/15 4 years ago
95 Wit's End 79 2019/05/17 4 years ago
96 Live Life And Love 71 2019/05/18 4 years ago
97 When A Little Boy Hugs You 2 90 2019/05/18 4 years ago
98 Small Minds Thinking 4 164 2019/05/27 4 years ago
99 What It Is 5 108 2019/05/24 4 years ago
100 Parting Note 2 142 2019/05/27 4 years ago
101 Sing 85 2019/05/26 4 years ago
102 Autumn Love Song 141 2019/05/26 4 years ago
103 This Is Your Imagination Speaking 6 235 2019/05/27 4 years ago
104 Love Is A Bat 2 150 2019/05/27 4 years ago
105 Tenacious Like A Wildflower 4 190 2019/06/01 4 years ago
106 Comes And Goes 4 223 2019/06/01 4 years ago
107 Why The Cricket Sings 125 2019/06/02 3 years ago
108 Relativity Syndrome 2 119 2019/06/02 3 years ago
109 What Women Do 2 193 2019/06/02 3 years ago
110 Another Blank Page 4 162 2019/06/02 3 years ago
111 Barbicon 213 2019/06/09 3 years ago
112 Kid Running With Hat 141 2019/06/11 3 years ago
113 Try & Fail & Try & Try & Fail Again 2 121 2019/06/14 3 years ago
114 Talking 131 2019/06/14 3 years ago
115 Quality Write 131 2019/06/16 3 years ago
116 My Demons 2 149 2019/06/19 3 years ago
117 Rebuttal #1: Ancient History 125 2019/06/19 3 years ago
118 Rebuttal #2: Skillset 140 2019/06/19 3 years ago
119 Rebuttal #3: Miss Me While I'm Here 101 2019/06/19 3 years ago
120 The Survivor Song 167 2019/06/20 3 years ago
121 And Then The Lights Went Out 2 121 2019/06/21 3 years ago
122 January Rain 173 2019/06/21 3 years ago
123 Through Time 2 177 2019/06/21 3 years ago
124 Patchwork Sky 2 138 2019/06/23 3 years ago
125 Message To New Writers 141 2019/06/24 3 years ago
126 Sabbatical 157 2019/06/25 3 years ago
127 Ah, Those Hellish Bells 140 2019/10/16 3 years ago
128 Love: A New Angle 98 2019/06/30 3 years ago
129 Insecurity 122 2019/07/01 3 years ago
130 Sour Grapes 4 148 2019/02/17 3 years ago
131 I Can't Get Out 126 2019/07/01 3 years ago
132 Courageous Time 113 2019/07/01 3 years ago
133 Snit 4 115 2019/07/03 3 years ago
134 Castle 6 155 2019/07/03 3 years ago
135 Breaking Oaths 4 154 2019/07/05 3 years ago
136 Merlad 2 107 2019/07/08 3 years ago
137 Poetics 6 213 2019/07/12 3 years ago
138 First Robin 104 2019/07/12 3 years ago
139 Slept 189 2019/02/16 3 years ago
140 Candy 2 140 2019/07/16 3 years ago
141 The Epic Gesture 141 2019/07/16 3 years ago
142 Tag You're It 133 2019/07/16 3 years ago
143 Temporal Thinking 99 2019/07/16 3 years ago
144 Cool 133 2019/07/16 3 years ago
145 Fast Break 2 121 2019/07/16 3 years ago
146 Yes, The Now 6 222 2019/07/16 3 years ago
147 Happy Poem 152 2019/07/18 3 years ago
148 Cozy 2 103 2019/07/20 3 years ago
149 I Don't Have That Kind Of Void 4 155 2019/07/20 3 years ago
150 Cock Horse 175 2019/07/20 3 years ago
151 Infinity 112 2019/07/20 3 years ago
152 Shoe 145 2019/07/20 3 years ago
153 Vagabond Weed 141 2019/07/21 3 years ago
154 Impossible Possibility 139 2019/07/21 3 years ago
155 The Whole Truth 151 2019/07/23 3 years ago
156 Wash Day 2 123 2019/07/23 3 years ago
157 Hodgepodge 2 81 2019/07/24 3 years ago
158 Doors 104 2019/07/24 3 years ago
159 Monsoon 4 147 2019/07/24 3 years ago
160 Serial Night Terror 117 2019/07/26 3 years ago
161 Trappist-1 77 2019/07/26 3 years ago
162 In Our Stars 2 134 2019/07/26 3 years ago
163 Stone Truthless 2 109 2019/07/27 3 years ago
164 Be Just My Luck 6 192 2019/07/29 3 years ago
165 Hell No! 6 184 2019/02/16 3 years ago
166 Good Grin 84 2019/07/29 3 years ago
167 Balance 2 150 2019/07/31 3 years ago
168 Auburn 2 171 2019/02/17 3 years ago
169 Reading 2 115 2019/02/17 3 years ago
170 Tears 129 2019/08/01 3 years ago
171 Wish 6 166 2019/08/02 3 years ago
172 When The Gloves Come Off 137 2019/08/02 3 years ago
173 Sunshine Visitor 4 127 2019/08/04 3 years ago
174 Blink Blink 6 126 2019/08/05 3 years ago
175 Unseen 113 2019/08/05 3 years ago
176 Lace Making 106 2019/08/05 3 years ago
177 Longevity 4 105 2019/08/05 3 years ago
178 Ode To My Teeth 2 117 2019/08/05 3 years ago
179 Break Up 158 2019/08/08 3 years ago
180 Nursery Rhymes 4 130 2019/08/08 3 years ago
181 Quill 2 126 2019/08/10 3 years ago
182 Evolution 70 2019/08/10 3 years ago
183 Always Wondered 101 2019/08/10 3 years ago
184 Unusual Angle 93 2019/08/11 3 years ago
185 Wrinkles 97 2019/08/11 3 years ago
186 Burnin' Down The House 80 2019/08/11 3 years ago
187 Moondust 6 159 2019/08/12 3 years ago
188 Movement Of Quills 92 2019/08/12 3 years ago
189 Ages of Death's Wages 2 233 2019/08/24 3 years ago
190 Amorous 2 188 2019/08/14 3 years ago
191 Roosting Chickens 124 2019/08/15 3 years ago
192 Global Warming 61 2019/08/16 3 years ago
193 Skylines 69 2019/08/16 3 years ago
194 Old Ghost Reunion 4 168 2019/08/18 3 years ago
195 The Mathemetician 76 2019/08/19 2 years ago
196 Were Santa's Reindeer Female? 6 176 2019/08/21 2 years ago
197 Tock Tick, Tock Tick 2 83 2019/08/21 2 years ago
198 Attitude #6 71 2019/08/21 2 years ago
199 Love Humor 6 179 2019/02/18 2 years ago
200 Overheard 151 2019/04/05 2 years ago
201 When I Cannot 152 2019/08/23 2 years ago
202 Mary Au Contraire 70 2019/08/23 2 years ago
203 The Emperor of Earth 7 85 2019/08/24 2 years ago
204 Oldies 2 200 2019/08/26 2 years ago
205 Potential 119 2019/08/26 2 years ago
206 308,734,538 112 2019/08/26 2 years ago
207 Looking For Love 2 102 2019/09/10 2 years ago
208 Inexorable 2 164 2019/09/12 2 years ago
209 Walking On The Moon 1 139 2019/09/14 2 years ago
210 Anatomy Of An Idea 175 2019/09/15 2 years ago
211 Library 152 2019/09/17 2 years ago
212 Nursery Rhyme Revision 133 2019/09/21 2 years ago
213 Electric City 124 2019/09/21 2 years ago
214 White Lies 148 2019/09/24 2 years ago
215 Teardrop 131 2019/10/02 2 years ago
216 Life's Cycle 101 2019/10/02 2 years ago
217 Flora 116 2019/10/02 2 years ago
218 Langston Hughes 99 2019/04/07 2 years ago
219 Unmitigated Joy 88 2019/10/10 2 years ago
220 Allegory As A Life's Course 87 2019/10/12 2 years ago
221 Contemplate Hope 8 144 2019/10/13 2 years ago
222 Lunatic Eyes 172 2019/10/16 2 years ago
223 Hopscotched Quilt 2 149 2019/10/18 2 years ago
224 Time As A Cause 2 164 2019/10/19 2 years ago
225 Voila Or Not! 135 2019/10/23 2 years ago
226 In A Well 189 2019/02/16 2 years ago
227 Hard Hearted 144 2019/10/29 2 years ago
228 Paper Flower 2 145 2019/11/01 2 years ago
229 February Love 94 2019/11/03 2 years ago
230 Slips And Slurs 172 2019/11/03 2 years ago
231 Fantasy Flights 97 2019/11/13 2 years ago
232 Revolution Novice 145 2019/11/15 2 years ago
233 Reluctance 87 2019/11/15 2 years ago
234 Wallpaper (for Shahida) 2 84 2019/11/18 2 years ago
235 Pheromones 163 2019/04/07 2 years ago
236 Some Days 2 61 2019/11/21 2 years ago
237 Ink And Quill 125 2019/08/21 2 years ago
238 Ode To My Cell Phone 2 144 2019/02/16 2 years ago
239 Writing Down My Life's Vocabulary 163 2019/02/16 2 years ago
240 Rain Rain Please Stay 127 2019/03/27 2 years ago
241 Poets Before Dawn 2 151 2019/02/16 2 years ago
242 The Life Of Raindrops 2 177 2019/02/16 2 years ago
243 Sandpaper 134 2019/02/16 2 years ago
244 The Amalgamation of Alice 135 2019/04/16 2 years ago
245 Through The Gap In The Fence 153 2019/02/16 2 years ago
246 Writing In The Sand 4 161 2019/02/16 2 years ago
247 The Irony of Fire 132 2019/03/03 2 years ago
248 Bubbles And More Bubbles 209 2019/07/20 2 years ago
249 After The Fact 89 2019/08/15 2 years ago
250 If You Are Fighting And Losing, Hit Them With The Wall 2 214 2019/02/16 2 years ago
251 The Song Of Beebo 138 2019/02/16 2 years ago
252 Nest Fallen 123 2019/04/27 2 years ago
253 Faux Pas # 32,487 2 71 2019/04/29 1 year ago
254 If I Wrote A Love Poem 145 2019/04/28 1 year ago
255 Low Profile 187 2019/04/29 1 year ago
256 He Just Smiled 153 2019/04/29 1 year ago
257 Light Raging 2 51 2019/05/02 1 year ago
258 This Side Of Time 136 2019/03/08 1 year ago
259 The Scribbler 136 2019/10/02 1 year ago
260 I'm A Little Penguin 101 2019/02/16 49 weeks ago
261 Existence Dust 84 2019/03/10 48 weeks ago
262 Moondust 6 98 2019/02/16 43 weeks ago
263 The Poet Speaks Of Nothing 65 2019/04/06 43 weeks ago
264 I Wish I Had Other Artistic Skills 71 2019/05/17 43 weeks ago
265 The Invention: Eye Glasses 4 64 2019/02/16 43 weeks ago
266 Still Waters Running 93 2019/05/17 40 weeks ago
267 As Ugly As Homemade Sin 78 2019/05/26 39 weeks ago
268 Hope 10 123 2019/06/14 35 weeks ago
269 Fearlessness 2 58 2019/05/10 34 weeks ago
270 Old Imagination 2 64 2019/05/01 31 weeks ago
271 Depth Perception 136 2019/05/21 31 weeks ago
272 Rewrite 69 2019/04/25 31 weeks ago
273 Dreamscapes 10 163 2019/05/08 28 weeks ago
274 You Make My Heart Hurt 2 107 2019/05/24 26 weeks ago
275 Ursa Major 38 2019/08/10 18 weeks ago
276 Islands Of Peace 2 51 2019/07/29 16 weeks ago
277 Time Wish 2 96 2019/08/13 15 weeks ago
278 The Absolute Euphemism 16 2019/10/23 9 weeks ago
279 Trinkets 6 119 2019/10/19 8 weeks ago
280 FUCK HAS A NEW CONOTATION 2 52 2019/10/19 7 weeks ago